www.pogodaiklimat.ru

Погода и климат >> Архив погоды >> Япония >> Хиросима


АРХИВ ПОГОДЫ в Хиросиме

Время (UTC), дата Ветер
(напр.,м/с)
 
Видим.   Явления Облачность Т
(С)
Тd
(С)
f
(%)
Тe
(С)
Тes
(С)
Комфортность P
(гПа)
Po
(гПа)
Тmin
(С)
Tmax
(С)
R
(мм)
R24
(мм)
S
(см)
16 12.01 С 3 н/о н/о +4.9 +2.1 82 +1 +1 тепло 1020.3 1013.6
18 12.01 С 4 10 км 3/3
[Cu Sc]
+3.9 +1.3 83 -1 -1 по сезону 1020.6 1013.9
20 12.01 С 5 н/о н/о +3.3 +0.9 84 -2 -2 тепло 1020.2 1013.4
19 12.01 С 3 н/о н/о +3.6 +1.2 84 0 0 по сезону 1020.5 1013.7
21 12.01 С 5 15 км 1/1
[Cu Sc]
+3.2 +0.4 82 -2 -2 по сезону 1021.2 1014.4
22 12.01 С 6 н/о н/о +3.0 +0.4 83 -3 -3 по сезону 1021.6 1014.8
23 12.01 С 5 н/о н/о +2.8 +0.2 83 -3 -3 по сезону 1021.7 1014.9
00 13.01 С 5 20 км 3/3
[Cu Sc]
+4.4 +0.4 75 -0 +1 по сезону 1022.1 1015.4 +2.7
02 13.01 С 3 н/о н/о +8.8 +0.3 55 +7 +7 тепло 1021.5 1014.9
01 13.01 С 4 н/о н/о +5.9 +0.5 68 +2 +2 по сезону 1022.2 1015.5
03 13.01 ЮЗ 1 30 км 1/1
[Cu hum]
+10.5 -0.3 47 +11 +18 тепло 1020.3 1013.7
04 13.01 СЗ 1 н/о н/о +11.4 -1.0 42 +12 +12 тепло 1019.6 1013.0
05 13.01 ЮВ 1 н/о н/о +12.8 -1.9 36 +13 +13 тепло 1019.2 1012.7
06 13.01 ЮЗ 4 30 км 5/4
[Cu Sc Ac trans]
+11.3 +0.1 46 +9 +10 по сезону 1019.5 1012.9
08 13.01 ЮЗ 3 н/о н/о +11.0 +1.3 51 +10 +10 тепло 1020.6 1014.0
07 13.01 ЮЗ 3 н/о н/о +11.1 -0.1 46 +10 +10 тепло 1019.9 1013.3
09 13.01 С 1 30 км 8/8
[Cu Sc]
+10.2 +1.6 55 +11 +11 тепло 1021.0 1014.4
10 13.01 З 1 н/о н/о +8.6 +2.2 64 +8 +8 тепло 1021.6 1015.0
11 13.01 С 3 н/о н/о +8.3 +1.7 63 +6 +6 тепло 1022.0 1015.4
12 13.01 С 4 30 км 1/1
[Cu hum]
+7.8 +1.2 63 +5 +5 по сезону 1022.3 1015.6 +14.1
14 13.01 С 6 н/о н/о +6.5 +0.6 66 +2 +2 тепло 1022.8 1016.1
13 13.01 С 4 н/о н/о +7.1 +0.8 64 +4 +4 тепло 1022.5 1015.8
15 13.01 С 4 н/о н/о +5.9 +0.3 67 +3 +3 по сезону 1022.6 1015.9
16 13.01 С 6 н/о н/о +5.4 0.0 68 +1 +1 тепло 1022.5 1015.8
17 13.01 С 6 н/о н/о +4.6 -0.2 71 -1 -1 по сезону 1023.2 1016.5
18 13.01 С 6 30 км 1/1
[Cu hum]
+4.4 -0.6 70 -1 -1 по сезону 1023.3 1016.5
20 13.01 С 4 н/о н/о +3.1 -0.9 75 -1 -1 тепло 1023.2 1016.4
19 13.01 С 4 н/о н/о +3.9 -0.9 71 -0 -0 по сезону 1023.2 1016.4
21 13.01 С 6 30 км 4/4
[Cu hum]
+3.4 -1.2 72 -2 -2 по сезону 1023.8 1017.0
22 13.01 С 4 н/о н/о +3.6 -1.0 72 -0 -0 тепло 1024.6 1017.8
23 13.01 С 5 н/о н/о +2.9 -1.3 74 -2 -2 по сезону 1024.8 1018.0
00 14.01 С 6 30 км 3/3
[Cu Sc]
+4.0 -1.2 69 -1 -0 по сезону 1025.3 1018.5 +2.9
02 14.01 СЗ 1 н/о н/о +9.0 -0.9 50 +9 +9 тепло 1024.8 1018.2
01 14.01 С 3 н/о н/о +6.2 -1.2 59 +4 +4 по сезону 1025.5 1018.8
03 14.01 ЮЗ 2 30 км 3/3
[Cu Sc]
+10.4 -0.7 46 +10 +15 тепло 1023.6 1017.0
04 14.01 Ю 2 н/о н/о +11.9 +0.1 44 +11 +11 тепло 1022.6 1016.0
05 14.01 ЮЗ 3 н/о н/о +12.1 +0.2 44 +11 +11 тепло 1022.5 1015.9
06 14.01 ЮЗ 3 30 км 9/9
[Cu med, cong]
+11.2 +1.5 51 +10 +10 тепло 1022.8 1016.2
08 14.01 Ю 1 н/о н/о +11.4 -0.4 44 +12 +12 тепло 1022.9 1016.3
07 14.01 ЮЗ 2 н/о н/о +11.9 +0.4 45 +12 +12 тепло 1022.7 1016.1
09 14.01 Ю 3 20 км 9/3
[Sc Ac trans Ci sp]
+11.1 +1.6 52 +10 +10 тепло 1023.7 1017.1
10 14.01 ЮЗ 2 н/о н/о +10.4 +2.5 58 +9 +9 тепло 1024.2 1017.6
11 14.01 С 1 н/о н/о +8.7 +2.3 64 +9 +9 тепло 1024.3 1017.6
12 14.01 С 3 20 км 4/1
[Sc Ci sp]
+8.1 +1.5 63 +6 +6 по сезону 1024.0 1017.3 +12.9
14 14.01 С 3 н/о н/о +7.6 +1.9 67 +5 +5 тепло 1023.3 1016.6
13 14.01 С 3 н/о н/о +7.6 +1.9 67 +5 +5 тепло 1023.3 1016.6
15 14.01 С 4 н/о н/о +6.1 +1.6 73 +2 +2 по сезону 1023.0 1016.3
16 14.01 С 5 н/о н/о +5.7 +1.6 75 +2 +2 тепло 1022.7 1016.0
17 14.01 С 5 н/о н/о +5.1 +1.2 76 +1 +1 тепло 1022.6 1015.9
18 14.01 С 2 15 км 9/0
[Ac trans Ci sp]
+5.0 +1.1 76 +2 +2 по сезону 1022.4 1015.7
20 14.01 С 5 н/о н/о +4.5 +0.8 77 0 0 тепло 1021.3 1014.6
19 14.01 С 4 н/о н/о +4.8 +1.1 77 +1 +1 по сезону 1021.8 1015.1
21 14.01 С 4 15 км 9/6
[Cu Sc Ac trans Ci sp]
+4.9 +1.0 76 +1 +1 по сезону 1021.5 1014.8
22 14.01 С 4 н/о н/о +4.9 +0.9 75 +1 +1 тепло 1021.8 1015.1
23 14.01 С 3 н/о н/о +5.0 +0.8 74 +2 +2 тепло 1021.4 1014.7
00 15.01 С 1 10 км 9/3
[Sc Ac As Ci sp]
+6.1 +1.3 71 +6 +8 тепло 1020.9 1014.2 +4.4
02 15.01 ЮВ 1 н/о н/о +9.2 +2.5 63 +10 +10 тепло 1020.4 1013.8
01 15.01 СЗ 1 н/о н/о +7.0 +1.5 68 +7 +7 тепло 1021.2 1014.5
03 15.01 Ю 3 10 км {ливн. осадки} 9/9
[Cu med, cong Ci sp]
+10.4 +4.3 66 +9 +10 тепло 1019.1 1012.5
04 15.01 Ю 2 н/о н/о +11.5 +4.7 63 +11 +11 тепло 1018.3 1011.8
05 15.01 Ю 4 н/о н/о +13.0 +3.9 54 +12 +12 тепло 1017.6 1011.1
06 15.01 Ю 6 15 км {ливн. осадки} 4/3
[Cu med, cong Ac trans Ci sp]
+13.5 +0.2 40 +12 +13 тепло 1017.4 1010.9 0.0
08 15.01 СЗ 5 н/о н/о +12.0 -3.0 35 +10 +10 тепло 1017.2 1010.7
07 15.01 ЮЗ 5 н/о н/о +13.4 -1.7 35 +12 +12 тепло 1017.0 1010.5
09 15.01 С 4 10 км 9/1
[Cu Sc Ci sp]
+10.6 -2.8 39 +9 +9 тепло 1018.0 1011.4
10 15.01 С 4 н/о н/о +9.9 -2.4 42 +8 +8 тепло 1018.7 1012.1
11 15.01 СЗ 1 н/о н/о +9.3 -2.3 44 +9 +9 тепло 1019.0 1012.4
12 15.01 З 2 10 км 9/1
[Sc Ci sp]
+8.7 -2.0 47 +8 +8 тепло 1018.9 1012.3 +14.2 0.0
14 15.01 С 1 н/о н/о +6.7 -0.7 59 +6 +6 тепло 1019.0 1012.3
13 15.01 СЗ 2 н/о н/о +7.5 -0.9 55 +6 +6 тепло 1018.8 1012.2
15 15.01 З 1 н/о н/о +6.5 -0.2 62 +6 +6 тепло 1018.6 1011.9
16 15.01 З 1 н/о н/о +6.0 -0.1 65 +5 +5 тепло 1018.4 1011.7
17 15.01 З 1 н/о н/о +6.2 -0.1 64 +7 +7 тепло 1018.1 1011.4
18 15.01 С 2 10 км слаб. ливневой дождь 10/10
[Cu med, cong]
+6.1 0.0 65 +4 +4 тепло 1018.4 1011.7 0.0
20 15.01 С 4 н/о н/о +6.5 +0.8 67 +3 +3 тепло 1018.6 1011.9
19 15.01 С 2 н/о н/о +5.9 +0.7 69 +4 +4 тепло 1018.5 1011.8
21 15.01 С 5 10 км в посл. час ливневой дождь 10/10
[Cu med, cong]
+6.8 -0.4 60 +3 +3 по сезону 1019.1 1012.4
22 15.01 С 5 н/о н/о +6.7 -0.7 59 +3 +3 тепло 1019.8 1013.1
23 15.01 С 5 н/о н/о +6.5 -0.9 59 +3 +3 тепло 1020.2 1013.5
00 16.01 С 4 20 км {ливн. осадки} 6/6
[Cu Sc]
+7.0 -0.4 59 +4 +5 по сезону 1020.7 1014.0 +5.8 0.0
02 16.01 СЗ 2 н/о н/о +8.0 -2.9 46 +7 +7 тепло 1020.7 1014.1
01 16.01 С 4 н/о н/о +7.5 -1.4 53 +5 +5 тепло 1021.1 1014.4
03 16.01 С 4 20 км в посл. час ливневой дождь 9/9
[Cu med, cong]
+8.2 -1.9 49 +6 +6 по сезону 1020.2 1013.6
04 16.01 С 4 н/о н/о +9.0 -2.9 43 +7 +7 тепло 1019.3 1012.7
05 16.01 С 6 н/о н/о +8.3 -2.3 47 +5 +5 по сезону 1018.9 1012.3
06 16.01 СЗ 5 20 км {ливн. осадки} 8/8
[Cu Sc]
+8.8 -3.1 43 +6 +6 по сезону 1019.1 1012.5 0.0
08 16.01 СЗ 6 н/о н/о +7.6 -2.7 48 +4 +4 тепло 1019.7 1013.1
07 16.01 СЗ 6 н/о н/о +8.9 -3.6 41 +6 +6 тепло 1018.9 1012.3
09 16.01 С 5 20 км {ливн. осадки} 6/5
[Cu Sc Ac trans Ci fib]
+7.1 -2.1 52 +4 +4 по сезону 1020.2 1013.5
10 16.01 С 4 н/о н/о +6.8 -2.1 53 +4 +4 тепло 1020.7 1014.0
11 16.01 С 3 н/о н/о +6.2 -1.9 56 +4 +4 тепло 1020.5 1013.8
12 16.01 СВ 2 20 км {ливн. осадки} 6/6
[Cu med, cong]
+5.7 -1.7 59 +4 +4 по сезону 1020.7 1014.0 +9.7 0.0
14 16.01 С 3 н/о н/о +4.3 -1.1 68 +1 +1 тепло 1020.3 1013.6
13 16.01 С 2 н/о н/о +5.1 -1.6 62 +3 +3 тепло 1020.7 1014.0
15 16.01 СВ 2 н/о н/о +3.8 -1.2 70 +1 +1 по сезону 1020.8 1014.0
16 16.01 С 2 н/о н/о +2.9 -1.1 75 0 0 тепло 1020.2 1013.4
17 16.01 С 2 н/о н/о +2.5 -1.1 77 0 0 по сезону 1020.5 1013.7
18 16.01 СВ 1 15 км 5/1
[Cu hum Ci fib]
+1.9 -1.3 79 0 0 по сезону 1020.5 1013.7
20 16.01 С 3 н/о н/о +1.2 -1.9 80 -3 -3 по сезону 1019.3 1012.5
19 16.01 С 2 н/о н/о +1.7 -1.5 79 -2 -2 по сезону 1019.7 1012.9
21 16.01 С 3 15 км 4/1
[Cu hum Ci fib]
+1.0 -2.2 79 -3 -3 прохладно 1019.6 1012.8
22 16.01 С 2 н/о н/о +1.1 -2.3 78 -2 -2 тепло 1019.9 1013.1
23 16.01 С 3 н/о н/о +1.4 -2.5 75 -3 -3 по сезону 1019.9 1013.1
00 17.01 С 2 25 км 5/4
[Cu med, cong Ci fib]
+2.3 -2.2 72 -1 +1 по сезону 1020.3 1013.5 +0.9
02 17.01 ЮЗ 2 н/о н/о +7.7 -2.9 47 +6 +6 тепло 1019.7 1013.1
01 17.01 ЮВ 2 н/о н/о +5.4 -2.9 55 +4 +4 по сезону 1020.5 1013.8
03 17.01 ЮЗ 4 30 км 3/3
[Cu Sc]
+9.5 -5.6 34 +7 +11 тепло 1018.7 1012.1
04 17.01 Ю 4 н/о н/о +10.1 -5.8 32 +8 +8 тепло 1017.6 1011.0
05 17.01 Ю 2 н/о н/о +10.7 -5.3 32 +10 +10 тепло 1016.9 1010.3
06 17.01 СЗ 4 40 км 3/3
[Cu Sc]
+11.6 -6.7 27 +10 +11 тепло 1016.7 1010.2
08 17.01 З 6 н/о н/о +8.5 -5.3 37 +5 +5 тепло 1018.4 1011.8
07 17.01 З 7 н/о н/о +10.1 -6.2 31 +7 +7 тепло 1017.3 1010.7
09 17.01 З 7 30 км 8/8
[Cu Sc]
+8.2 -4.2 41 +4 +4 по сезону 1018.8 1012.2
10 17.01 С 4 н/о н/о +7.8 -2.2 49 +5 +5 тепло 1019.4 1012.8
11 17.01 СВ 3 н/о н/о +7.0 -1.4 55 +5 +5 тепло 1020.4 1013.7
12 17.01 СВ 2 30 км 8/8
[Cu Sc]
+7.1 -1.3 55 +6 +6 по сезону 1020.9 1014.2 +11.7
14 17.01 С 3 н/о н/о +6.1 -1.1 60 +4 +4 тепло 1022.2 1015.5
13 17.01 СЗ 1 н/о н/о +6.6 -1.1 58 +6 +6 тепло 1021.5 1014.8
15 17.01 С 3 н/о н/о +5.9 -0.4 64 +3 +3 по сезону 1022.4 1015.7
16 17.01 З 1 н/о н/о +5.8 +0.6 69 +5 +5 тепло 1022.5 1015.8
17 17.01 СВ 2 н/о н/о +5.4 +0.8 72 +4 +4 тепло 1022.8 1016.1
18 17.01 С 3 30 км {ливн. осадки} 5/5
[Cu hum]
+4.5 +0.7 76 +1 +1 по сезону 1023.1 1016.4 0.0
20 17.01 С 2 н/о н/о +3.6 +0.5 80 +1 +1 тепло 1023.5 1016.7
19 17.01 С 4 н/о н/о +3.9 +0.4 78 -0 -0 по сезону 1023.2 1016.4
21 17.01 С 3 20 км 3/3
[Cu Sc]
+3.1 +0.2 81 -1 -1 по сезону 1023.6 1016.8
22 17.01 С 2 н/о н/о +2.8 +0.2 83 -0 -0 тепло 1024.4 1017.6
23 17.01 С 4 н/о н/о +2.4 -0.2 83 -2 -2 по сезону 1025.2 1018.4
00 18.01 С 3 15 км 1/1
[Cu Sc]
+3.2 -0.1 79 -0 +2 по сезону 1025.9 1019.1 +2.4 0.0
02 18.01 Ю 1 н/о н/о +8.7 +0.4 56 +8 +8 тепло 1026.1 1019.4
01 18.01 СВ 1 н/о н/о +5.4 +0.4 70 +4 +4 по сезону 1026.4 1019.7
03 18.01 ЮЗ 2 12 км 3/3
[Cu hum Ci fib]
+10.9 -0.9 44 +10 +15 тепло 1025.0 1018.4
04 18.01 Ю 2 н/о н/о +11.1 -2.3 39 +10 +10 тепло 1023.7 1017.1
05 18.01 Ю 3 н/о н/о +12.0 -2.2 37 +11 +11 тепло 1023.2 1016.6
06 18.01 ЮЗ 3 20 км 1/1
[Cu hum]
+12.2 -2.4 36 +11 +14 тепло 1023.1 1016.5
08 18.01 ЮЗ 4 н/о н/о +10.9 -0.2 46 +9 +9 тепло 1024.2 1017.6
07 18.01 ЮЗ 4 н/о н/о +11.8 -1.0 41 +10 +10 тепло 1023.5 1016.9
09 18.01 ЮЗ 2 20 км 1/1
[Cu hum]
+10.4 +0.2 49 +9 +9 тепло 1025.0 1018.4
10 18.01 С 4 н/о н/о +9.1 -3.8 40 +7 +7 тепло 1025.4 1018.8
11 18.01 С 3 н/о н/о +8.4 -3.4 43 +6 +6 тепло 1026.0 1019.3
12 18.01 С 3 20 км 1/1
[Cu hum]
+7.1 -2.6 50 +5 +5 по сезону 1026.0 1019.3 +12.5
14 18.01 С 5 н/о н/о +5.0 -1.9 61 +1 +1 тепло 1026.6 1019.8
13 18.01 С 4 н/о н/о +5.8 -2.3 56 +2 +2 тепло 1026.3 1019.6
15 18.01 С 4 н/о н/о +4.3 -2.1 63 0 0 по сезону 1026.3 1019.5
16 18.01 С 6 н/о н/о +4.0 -2.0 65 -1 -1 тепло 1025.8 1019.0
17 18.01 С 5 н/о н/о +3.1 -1.8 70 -2 -2 по сезону 1026.1 1019.3
18 18.01 С 5 30 км 4/0
[Ac trans]
+2.8 -2.1 70 -2 -2 по сезону 1026.0 1019.2
20 18.01 С 4 н/о н/о +1.9 -2.2 74 -3 -3 по сезону 1025.6 1018.8
19 18.01 С 4 н/о н/о +2.2 -2.1 73 -3 -3 по сезону 1025.7 1018.9
21 18.01 С 6 30 км 1/0
[Ac trans]
+1.6 -2.3 75 -4 -4 прохладно 1025.7 1018.9
22 18.01 С 5 н/о н/о +1.6 -2.3 75 -4 -4 по сезону 1026.3 1019.5
23 18.01 С 5 н/о н/о +1.7 -2.4 74 -4 -4 по сезону 1026.7 1019.9
00 19.01 С 3 30 км 3/0
[Ac trans Ci fib]
+2.7 -2.4 69 -1 +1 по сезону 1026.7 1019.9 +1.3
02 19.01 В 1 н/о н/о +7.6 -1.9 51 +8 +8 тепло 1026.3 1019.6
01 19.01 С 1 н/о н/о +4.6 -1.8 63 +4 +4 по сезону 1026.8 1020.0
03 19.01 Ю 3 20 км 1/1
[Cu hum Ac trans Ci fib]
+10.4 +1.0 52 +9 +15 тепло 1024.8 1018.2
04 19.01 ЮЗ 4 н/о н/о +10.9 +0.3 48 +9 +9 тепло 1023.3 1016.7
05 19.01 Ю 3 н/о н/о +11.7 +0.8 47 +10 +10 тепло 1022.5 1015.9
06 19.01 ЮЗ 3 30 км 1/1
[Cu hum]
+12.4 +1.7 48 +11 +14 тепло 1022.0 1015.5
08 19.01 Ю 4 н/о н/о +12.1 -0.1 43 +11 +11 тепло 1020.9 1014.4
07 19.01 Ю 3 н/о н/о +12.7 +2.3 49 +12 +12 тепло 1021.5 1015.0
09 19.01 Ю 3 20 км 9/1
[Sc Ac As]
+11.7 -0.4 43 +10 +10 тепло 1020.6 1014.0
10 19.01 Ю 3 н/о н/о +11.6 +0.1 45 +10 +10 тепло 1020.4 1013.8
11 19.01 Ю 3 н/о н/о +10.9 +2.0 54 +10 +10 тепло 1020.6 1014.0
12 19.01 С 1 15 км 10/0
[Ac As]
+8.9 +1.6 60 +9 +9 тепло 1020.0 1013.4 +13.0
14 19.01 СВ 1 н/о н/о +8.6 +2.0 63 +9 +9 тепло 1019.0 1012.4
13 19.01 С 1 н/о н/о +8.6 +2.0 63 +8 +8 тепло 1019.5 1012.9

 

Местоположение метеостанции Хиросима (Япония): широта 34.40 долгота 132.46 высота над уровнем моря 53 м.

В архиве по умолчанию представлена погода в Хиросиме за последнюю неделю. Архивные данные за месяц целиком и за предыдущие месяцы, начиная с января 2011 года, Вы можете получить, выбрав интересующий диапазон дат из раскрывающегося списка и нажав кнопку "Ввод!".


*Определитесь, кто Вы:
робот инопланетянин человек

Внимание! Время в таблицах - всемирное. Для получения местного времени необходимо прибавить поправку, которая равна 9 ч.

Смотрите также архив погоды в соседних городах и на ближайших метеорологических станциях:

Погода в Куре (Япония) (21 км)
Погода в Хамаде (Япония) (67 км)
Погода в Мацуяме (Япония) (68 км)
Погода в Фукуяме (Япония) (73 км)
Погода в Ямагути (Япония) (96 км)
Погода в Хаги (Япония) (97 км)
Погода в Тадоцу (Япония) (119 км)
Погода в Мацуэ (Япония) (129 км)
Погода в Увадзиме (Япония) (130 км)
Погода в Окаяме (Япония) (136 км)

Пояснения к столбцам:

Ветер - указаны скорость ветра в м/с - средняя за 10 мин, порывы в срок и между сроками (в фигурных скобках) и направление, откуда дует ветер: С - северный, СВ - северо-восточный, В - восточный, ЮВ - юго-восточный, Ю - южный, ЮЗ - юго-западный, З - западный, СЗ - северо-западный.
Видимость - горизонтальная дальность видимости в метрах или километрах. При видимости от 1 до 10 км при отсутствии осадков обычно наблюдается дымка, при ухудшении видимости до 1 км и менее - туман. В сухую погоду видимость может ухудшаться дымом, пылью или мглою.
Явления - указаны атмосферные явления, наблюдавшиеся в срок или в последний час перед сроком; фигурными скобками обозначены явления, наблюдавшиеся между сроками (за 1-3 часа до срока); квадратными скобками обозначены град или гололедные отложения с указанием их диаметра в мм.
Облачность - указаны через наклонную черту общая и нижняя облачность в баллах и высота нижней границы облаков в метрах; квадратными скобками обозначены формы облаков: Ci - перистые, Cs - перисто-слоистые, Cc - перисто-кучевые, Ac - высококучевые, As - высокослоистые, Sc - слоисто-кучевые, Ns - слоисто-дождевые, Cu - кучевые, Cb - кучево-дождевые. Подробнее классификацию облаков см. в Атласе облаков (PDF).
T - Температура воздуха - температура, измеренная на высоте 2 м над землей.
Td - Температура точки росы - температура, при понижении до которой содержащийся в воздухе водяной пар достигнет насыщения.
f - Относительная влажность воздуха - влажноcть воздуха, измеренная на высоте 2 м над землей.
Te - Эффективная температура - температура, которую ощущает одетый по сезону человек в тени. Характеристика душности погоды. При расчете учитывается влияние влажности воздуха и скорости ветра на теплоощущения человека.
Tes - Эффективная температура на солнце - температура, которую ощущает человек, с поправкой на солнечный нагрев. Характеристика знойности погоды. Зависит от высоты солнца над горизонтом, облачности и скорости ветра. Ночью, в пасмурную погоду, а также при ветре 12 м/с и более поправка равна нулю.
P - Атмосферное давление - приведенное к уровню моря атмосферное давление.
Po - Атмосферное давление - измеренное на уровне метеостанции атмосферное давление.
Tmin - Минимальная температура - минимум температуры воздуха на высоте 2 м над землей.
Tmax - Максимальная температура - максимум температуры воздуха на высоте 2 м над землей.
R - Количество осадков - Количество выпавших осадков за период времени, мм. При наведении курсора мыши на число - период времени, за который выпало указанное количество осадков.
R24 - Количество осадков - Количество выпавших осадков за 24 часа, мм.
S - Снежный покров - Высота снежного покрова, см. При наведении курсора мыши на число - состояние снежного покрова и степень покрытия местности в баллах.